Chattanooga, TN

8:20 PM EDT on May 26, 2017 (GMT -0400)
Lovell

Weather History for KCHA - September, 2014

Change the Weather History Date:

Sunday, September 7, 2014

  Actual Average Record
Temperature  
Mean Temperature 80 °F 76 °F  
Max Temperature 88 °F 86 °F 104 °F (1925)
Min Temperature 71 °F 65 °F 52 °F (1984)
Degree Days  
Heating Degree Days 0 0  
Month to date heating degree days 0 0  
Since 1 July heating degree days 0 0  
Cooling Degree Days 15 11  
Month to date cooling degree days 111 80  
Year to date cooling degree days 1612 1530  
Growing Degree Days 30 (Base 50)    
Moisture  
Dew Point 69 °F    
Average Humidity 72    
Maximum Humidity 93    
Minimum Humidity 50    
Precipitation  
Precipitation 0.03 in 0.13 in 6.37 in (1977)
Month to date precipitation 0.98 0.85  
Year to date precipitation 29.63 36.11  
Snow  
Snow 0.00 in - - ()
Month to date snowfall 0.0  
Snow Depth 0.00 in    
Sea Level Pressure  
Sea Level Pressure 30.00 in    
Wind  
Wind Speed 7 mph (North)    
Max Wind Speed 16 mph    
Max Gust Speed 20 mph    
Visibility 10 miles    
Events Rain , Thunderstorm    
T = Trace of Precipitation, MM = Missing Value Source: NWS Daily Summary

Daily Weather History Graph

Daily Weather History Graph

Search for Another Location

Airport or City:

Trip Planner

Search our weather history database for the weather conditions in past years. The results will help you decide how hot, cold, wet, or windy it might be!

Date:

Astronomy

Sep. 07, 2014 Rise Set
Actual Time 7:17 AM EDT 7:59 PM EDT
Civil Twilight 6:52 AM EDT 8:24 PM EDT
Nautical Twilight 6:22 AM EDT 8:54 PM EDT
Astronomical Twilight 5:51 AM EDT 9:25 PM EDT
Moon 6:56 PM EDT (9/7) 5:32 AM EDT (9/7)
Length of Visible Light 13h 32m
Length of Day
12h 41m
Waxing Gibbous, 97% of the Moon is Illuminated
Sep 7
Waxing Gibbous
Sep 8
Full
Sep 15
Last Quarter
Sep 24
New
Oct 1
First Quarter

Hourly Weather History & Observations

Time (EDT) Temp. Heat Index Dew Point Humidity Pressure Visibility Wind Dir Wind Speed Gust Speed Precip Events Conditions
12:53 AM 77.0 °F - 68.0 °F 74% 30.01 in 10.0 mi North 8.1 mph - N/A   Clear
1:53 AM 75.0 °F - 68.0 °F 79% 30.00 in 10.0 mi North 5.8 mph - N/A   Clear
2:53 AM 73.0 °F - 68.0 °F 84% 29.99 in 10.0 mi NNW 4.6 mph - N/A   Clear
3:53 AM 73.9 °F - 68.0 °F 82% 29.98 in 10.0 mi Calm Calm - N/A   Clear
4:53 AM 73.0 °F - 68.0 °F 84% 29.99 in 10.0 mi Calm Calm - N/A   Clear
5:53 AM 71.1 °F - 66.9 °F 87% 30.01 in 10.0 mi NNW 3.5 mph - N/A   Scattered Clouds
6:53 AM 72.0 °F - 68.0 °F 87% 30.02 in 10.0 mi NNE 5.8 mph - N/A   Scattered Clouds
7:53 AM 72.0 °F - 68.0 °F 87% 30.02 in 10.0 mi North 4.6 mph - N/A   Scattered Clouds
8:53 AM 75.9 °F - 69.1 °F 79% 30.03 in 10.0 mi North 6.9 mph - N/A   Scattered Clouds
9:53 AM 78.1 °F - 68.0 °F 71% 30.03 in 10.0 mi NE 12.7 mph - N/A   Mostly Cloudy
10:53 AM 81.0 °F 83.8 °F 68.0 °F 65% 30.04 in 10.0 mi NNE 10.4 mph - N/A   Mostly Cloudy
11:53 AM 82.0 °F 85.9 °F 70.0 °F 67% 30.04 in 10.0 mi North 10.4 mph - N/A   Mostly Cloudy
12:53 PM 82.9 °F 86.5 °F 69.1 °F 63% 30.04 in 10.0 mi North 11.5 mph - N/A   Mostly Cloudy
1:53 PM 84.9 °F 89.4 °F 70.0 °F 61% 30.01 in 10.0 mi North 10.4 mph - N/A   Mostly Cloudy
2:53 PM 87.1 °F 90.6 °F 68.0 °F 53% 29.99 in 10.0 mi North 12.7 mph - N/A   Mostly Cloudy
3:53 PM 87.1 °F 89.2 °F 66.0 °F 49% 29.96 in 10.0 mi NNE 15.0 mph - N/A   Mostly Cloudy
4:53 PM 87.8 °F 90.4 °F 66.2 °F 49% 29.98 in 10.0 mi NE 10.4 mph - N/A   Mostly Cloudy
5:53 PM 86.0 °F 89.4 °F 68.0 °F 55% 29.95 in 10.0 mi NE 8.1 mph - 0.00 in   Mostly Cloudy
6:04 PM 84.9 °F 88.2 °F 68.0 °F 57% 29.99 in 10.0 mi NNW 12.7 mph - N/A Thunderstorm Thunderstorm
6:47 PM 77.0 °F - 71.6 °F 83% 29.99 in 8.0 mi North 6.9 mph - 0.02 in Rain Light Rain
6:53 PM 78.1 °F - 72.0 °F 81% 29.97 in 10.0 mi NNW 8.1 mph - 0.02 in Rain Light Rain
7:53 PM 75.9 °F - 71.1 °F 85% 29.98 in 10.0 mi NW 4.6 mph - 0.01 in Rain Light Rain
8:53 PM 75.0 °F - 70.0 °F 84% 30.00 in 10.0 mi Calm Calm - 0.00 in   Mostly Cloudy
9:53 PM 73.9 °F - 71.1 °F 91% 30.01 in 10.0 mi Calm Calm - N/A   Mostly Cloudy
10:53 PM 75.2 °F - 69.8 °F 83% 30.04 in 10.0 mi NNE 5.8 mph - N/A   Scattered Clouds